Powrót do katalogu

ONEWEB-0449

AktywnyŁącznośćPO
NORAD 51642·PAYLOAD·🇬🇧 United Kingdom

Wystrzelony Feb 10, 2022 z Guiana Space Centre

Loading…

Następne Przeloty (najbliższe 24 godziny)

TLE

ŚwieżeSource: CelesTrak SupGP

Epoka: Sep 14, 2026, 14:51 UTC

1 51642C 22012W   26257.61925185 -.00000563  00000+0 -16136-2 0  2575
2 51642  87.8907  18.4623 0001834 118.4785 351.6493 13.10369244    18

Śledź ONEWEB-0449 w czasie rzeczywistym z AllMySat

Download on the App Store